Weather History for Ashtabula, OH

Change the Weather History Date:

Friday, September 13, 2013

  Actual Average (KYNG) Record (KYNG)
Temperature  
Mean Temperature 56 °F 63 °F  
Max Temperature 60 °F 74 °F 93 °F (1952)
Min Temperature 52 °F 52 °F 35 °F (1964)
Degree Days  
Heating Degree Days 9 4  
Month to date heating degree days 34  
Since 1 July heating degree days 72  
Cooling Degree Days 0 2  
Month to date cooling degree days 33  
Year to date cooling degree days 519  
Growing Degree Days 6 (Base 50)    
Moisture  
Dew Point 49 °F    
Average Humidity 77    
Maximum Humidity 94    
Minimum Humidity 57    
Precipitation  
Precipitation 0.31 in 0.13 in 2.03 in (1980)
Month to date precipitation 1.64  
Year to date precipitation 27.86  
Snow  
Snow 0.00 in 0.00 in - ()
Month to date snowfall 0.0  
Since 1 July snowfall 0.0  
Since 1 September snowfall 0.0  
Snow Depth -    
Sea Level Pressure  
Sea Level Pressure 29.94 in    
Wind  
Wind Speed 3 mph (North)    
Max Wind Speed 13 mph    
Max Gust Speed 22 mph    
Visibility 8 miles    
Events Rain    
T = Trace of Precipitation, MM = Missing Value Source: NWS Daily Summary

Daily Weather History Graph

Daily Weather History Graph

Search for Another Location

Airport:

Trip Planner

Search our weather history database for the weather conditions in past years. The results will help you decide how hot, cold, wet, or windy it might be!

Date:

Astronomy

Sep. 13, 2013 Rise Set
Actual Time 7:01 AM EDT 7:35 PM EDT
Civil Twilight 6:33 AM EDT 8:03 PM EDT
Nautical Twilight 6:00 AM EDT 8:36 PM EDT
Astronomical Twilight 5:25 AM EDT 9:10 PM EDT
Moon 3:27 PM EDT (9/13) 12:25 AM EDT (9/13)
Length of Visible Light 13h 30m
Length of Day
12h 34m
First Quarter, 61% of the Moon is Illuminated
Sep 13
First Quarter
Sep 19
Full
Sep 26
Last Quarter
Oct 4
New
Oct 11
First Quarter

Hourly Weather History & Observations

Time (EDT) Temp. Dew Point Humidity Pressure Visibility Wind Dir Wind Speed Gust Speed Precip Events Conditions
12:53 AM 60.1 °F 55.0 °F 83% 29.86 in 10.0 mi Calm Calm - 0.00 in   Overcast
1:53 AM 59.0 °F 54.0 °F 83% 29.87 in 10.0 mi Calm Calm - 0.01 in   Overcast
2:53 AM 59.0 °F 54.0 °F 83% 29.86 in 10.0 mi Calm Calm - N/A   Overcast
3:53 AM 57.9 °F 55.0 °F 90% 29.86 in 7.0 mi Calm Calm - 0.07 in Rain Light Rain
4:29 AM 57.2 °F 55.4 °F 94% 29.87 in 2.0 mi West 3.5 mph - 0.06 in Rain Light Rain
4:33 AM 57.2 °F 55.4 °F 94% 29.87 in 7.0 mi Calm Calm - 0.06 in Rain Light Rain
4:53 AM 57.9 °F 55.0 °F 90% 29.86 in 10.0 mi Calm Calm - 0.06 in   Overcast
5:53 AM 57.9 °F 55.0 °F 90% 29.86 in 10.0 mi Calm Calm - 0.00 in   Overcast
6:07 AM 57.2 °F 55.4 °F 94% 29.88 in 1.8 mi Calm Calm - 0.06 in Rain Heavy Rain
6:12 AM 57.2 °F 53.6 °F 88% 29.87 in 2.0 mi NNW 3.5 mph - 0.06 in Rain Light Rain
6:20 AM 57.2 °F 53.6 °F 88% 29.88 in 10.0 mi NW 4.6 mph - 0.06 in   Overcast
6:42 AM 57.2 °F 53.6 °F 88% 29.88 in 10.0 mi Calm Calm - 0.07 in   Mostly Cloudy
6:53 AM 57.0 °F 53.1 °F 87% 29.88 in 10.0 mi Calm Calm - 0.07 in   Scattered Clouds
7:26 AM 57.2 °F 53.6 °F 88% 29.91 in 2.5 mi NNW 3.5 mph - 0.03 in Rain Rain
7:41 AM 57.2 °F 51.8 °F 82% 29.91 in 7.0 mi Variable 4.6 mph - 0.05 in Rain Light Rain
7:53 AM 55.9 °F 51.1 °F 84% 29.91 in 10.0 mi Variable 3.5 mph - 0.05 in   Overcast
8:28 AM 55.4 °F 51.8 °F 88% 29.93 in 2.0 mi North 5.8 mph - 0.05 in Rain Heavy Rain
8:31 AM 55.4 °F 51.8 °F 88% 29.93 in 3.0 mi NNE 3.5 mph - 0.05 in Rain Light Rain
8:38 AM 55.4 °F 51.8 °F 88% 29.92 in 10.0 mi Variable 3.5 mph - 0.05 in Rain Light Rain
8:53 AM 55.9 °F 51.1 °F 84% 29.92 in 10.0 mi NNE 8.1 mph - 0.05 in   Overcast
9:53 AM 57.0 °F 48.0 °F 72% 29.94 in 10.0 mi North 5.8 mph - N/A   Overcast
10:53 AM 57.0 °F 46.0 °F 67% 29.96 in 10.0 mi NNE 9.2 mph 17.3 mph N/A   Overcast
11:53 AM 57.9 °F 45.0 °F 62% 29.98 in 10.0 mi North 12.7 mph 21.9 mph N/A   Mostly Cloudy
12:12 PM 57.2 °F 44.6 °F 63% 29.99 in 10.0 mi North 12.7 mph 20.7 mph N/A   Mostly Cloudy
12:30 PM 59.0 °F 44.6 °F 59% 29.99 in 10.0 mi North 10.4 mph 18.4 mph N/A   Overcast
12:53 PM 59.0 °F 44.1 °F 58% 29.99 in 10.0 mi North 12.7 mph 20.7 mph N/A   Overcast
1:53 PM 57.9 °F 44.1 °F 60% 29.99 in 10.0 mi NNE 8.1 mph 16.1 mph N/A   Overcast
2:53 PM 60.1 °F 45.0 °F 57% 29.98 in 10.0 mi North 10.4 mph 18.4 mph N/A   Mostly Cloudy
3:53 PM 57.0 °F 43.0 °F 59% 29.99 in 10.0 mi North 10.4 mph 18.4 mph N/A   Mostly Cloudy
4:53 PM 55.0 °F 44.1 °F 67% 30.00 in 10.0 mi Variable 3.5 mph - N/A   Overcast
5:53 PM 55.0 °F 44.1 °F 67% 30.01 in 10.0 mi Calm Calm - 0.00 in   Overcast
6:53 PM 54.0 °F 44.1 °F 69% 30.02 in 10.0 mi Calm Calm - N/A   Overcast
7:53 PM 54.0 °F 43.0 °F 66% 30.04 in 10.0 mi North 4.6 mph - N/A   Overcast
8:53 PM 53.1 °F 43.0 °F 69% 30.06 in 10.0 mi Variable 5.8 mph - 0.00 in   Overcast
9:53 PM 53.1 °F 41.0 °F 64% 30.08 in 10.0 mi NNE 4.6 mph - N/A   Overcast
10:53 PM 52.0 °F 41.0 °F 66% 30.09 in 10.0 mi NNE 6.9 mph - N/A   Overcast
11:53 PM 52.0 °F 41.0 °F 66% 30.08 in 10.0 mi North 3.5 mph - N/A   Overcast